This is the latest recevied weather packets stored in our database for station/object K5GHS-1. If no packets are shown the sender has not sent any weather packets the latest 1 day(s).
| Time | Temp. | Humidity | Pressure | Rain* | Wind** | Luminosity | Snow |
|---|---|---|---|---|---|---|---|
| 1778045633 | 15.56° C | 79% | 1008.1 hPa | 0 mm | - | 0 W/m² | - |
| 1778045331 | 15.56° C | 79% | 1008.3 hPa | 0 mm | - | 0 W/m² | - |
| 1778045029 | 15.56° C | 79% | 1008.3 hPa | 0 mm | - | 0 W/m² | - |
| 1778044120 | 16.11° C | 79% | 1008.2 hPa | 0 mm | - | 0 W/m² | - |
| 1778043211 | 16.11° C | 80% | 1007.8 hPa | 0 mm | - | 0 W/m² | - |
| 1778042908 | 16.11° C | 80% | 1008.2 hPa | 0 mm | - | 0 W/m² | - |
| 1778042302 | 16.67° C | 80% | 1008.1 hPa | 0 mm | - | 0 W/m² | - |
| 1778042000 | 16.67° C | 80% | 1007.8 hPa | 0 mm | - | 0 W/m² | - |
| 1778041698 | 16.67° C | 80% | 1007.7 hPa | 0 mm | - | 0 W/m² | - |
| 1778041397 | 17.22° C | 80% | 1007.7 hPa | 0 mm | - | 0 W/m² | - |
| 1778041095 | 17.22° C | 80% | 1007.8 hPa | 0 mm | - | 0 W/m² | - |
| 1778040791 | 17.22° C | 80% | 1007.6 hPa | 0 mm | - | 0 W/m² | - |
| 1778040489 | 17.22° C | 79% | 1007.5 hPa | 0 mm | - | 0 W/m² | - |
| 1778039277 | 17.78° C | 79% | 1007.7 hPa | 0 mm | - | 0 W/m² | - |
| 1778038974 | 17.78° C | 79% | 1007.3 hPa | 0 mm | - | 0 W/m² | - |
| 1778038368 | 18.33° C | 79% | 1007.1 hPa | 0 mm | - | 0 W/m² | - |
| 1778038065 | 18.33° C | 78% | 1007.3 hPa | 0 mm | - | 0 W/m² | - |
| 1778037762 | 18.33° C | 78% | 1007.2 hPa | 0 mm | - | 0 W/m² | - |
| 1778037458 | 18.89° C | 78% | 1006.9 hPa | 0 mm | - | 0 W/m² | - |
| 1778037156 | 18.89° C | 78% | 1007 hPa | 0 mm | - | 0 W/m² | - |
| 1778036854 | 19.44° C | 77% | 1006.9 hPa | 0 mm | - | 0 W/m² | - |
| 1778036551 | 19.44° C | 77% | 1006.7 hPa | 0 mm | - | 0 W/m² | - |
| 1778035641 | 20.56° C | 77% | 1006.2 hPa | 0 mm | - | 0 W/m² | - |
| 1778035338 | 20.56° C | 76% | 1006 hPa | 0 mm | - | 0 W/m² | - |
| 1778035034 | 20.56° C | 76% | 1006 hPa | 0 mm | - | 0 W/m² | - |
* Rain latest hour (hover to see other rain measurements)
** Current wind speed in m/s (hover to see current wind gust speed)